Regional Weather Roundup
Issued by NWS

Home | Current Version | Previous Version | Text Only | Print | Product List | Glossary On
Versions: 1 2 3 4 5 6 7 8 9 10 11 12 13 14 15 16 17 18 19 20 21 22 23 24 25 26 27
000
ASUS45 KBOU 192307
RWRCO

WEATHER ROUNDUP FOR COLORADO
NATIONAL WEATHER SERVICE DENVER/BOULDER CO
400 PM MST THU JAN 19 2017

NOTE: "FAIR" INDICATES FEW OR NO CLOUDS BELOW 12000 FEET WITH NO
SIGNIFICANT WEATHER AND/OR OBSTRUCTIONS TO VISIBILITY.

COZ001>005-013-030-031-200000-
...NORTHWEST COLORADO...

CITY           SKY/WX    TMP DP  RH WIND       PRES   REMARKS
CRAIG          CLOUDY    29  19  66 CALM      29.72S
HAYDEN         CLOUDY    25  16  68 CALM      29.70F
MEEKER         LGT SNOW  34  27  75 CALM      29.71S
MOUNT WERNER   NOT AVBL
STEAMBOAT SPGS CLOUDY    24  17  72 CALM      29.70F
WALDEN           N/A     14   5  67 CALM      29.68S
$$

COZ006>008-011-200000-
...WEST CENTRAL VALLEYS...

CITY           SKY/WX    TMP DP  RH WIND       PRES   REMARKS
GRAND JUNCTION CLOUDY    35  29  78 NW6       29.75R WCI  30
MONTROSE       CLOUDY    39  27  62 W7        29.75S
EAGLE          CLOUDY    30  19  64 CALM      29.73F
RIFLE          CLOUDY    37  23  56 N3        29.72F
DELTA          DRIZZLE   42  29  59 CALM      29.75R
NUCLA          LGT SNOW  34  32  93 CALM      29.82R
$$

COZ017>023-064>068-200000-
...SOUTHWEST COLORADO...

CITY           SKY/WX    TMP DP  RH WIND       PRES   REMARKS
DURANGO        LGT SNOW  33  27  78 SW6       29.80R WCI  28
CORTEZ         LGT SNOW  33  33 100 W3        29.80S FOG
PAGOSA SPRINGS CLOUDY    33  26  73 SW6       29.78S WCI  28
TELLURIDE      NOT AVBL
WOLF CREEK PAS CLOUDY    14  14 100 S21G28    29.79S WCI  -4
$$

COZ009-010-012-014-032>034-037-058>063-200000-
...CENTRAL COLORADO...

CITY           SKY/WX    TMP DP  RH WIND       PRES   REMARKS
ASPEN          CLOUDY    34  17  50 N5        29.68S WCI  30
BUENA VISTA    FAIR      32  18  58 CALM      29.64S
COPPER MTN     NOT AVBL
BERTHOUD PASS  NOT AVBL
COTTONWOOD PAS FAIR      37  12  35 W5        29.67S
GUNNISON       CLOUDY    12   8  84 E6        29.79F WCI   3
KREMMLING      FAIR      21  12  68 CALM      29.75S
LEADVILLE      FAIR      31  12  45 N9        29.64S WCI  23
MONARCH PASS   FAIR      19  14  79 SW8G25    29.80F WCI   9
SALIDA         FAIR      38  17  42 SW13G23   29.70R
SUNLIGHT       CLOUDY    19  18  93 SW6       29.76R WCI  11
WILKERSON PASS FAIR      32  10  40 W6        29.71S WCI  26
$$

COZ069>075-200000-
...SAN LUIS VALLEY/SANGRE DE CRISTO MOUNTAINS...

CITY           SKY/WX    TMP DP  RH WIND       PRES   REMARKS
ALAMOSA        CLOUDY    22  18  85 W6        29.74F WCI  14
LA VETA PASS   FAIR      21  18  86 NE26G32   29.67S WCI   4
SAGUACHE       CLOUDY    23  21  93 S8        29.77R WCI  14
$$

COZ035-036-038>040-200000-
...NORTHERN COLORADO FRONT RANGE...

CITY           SKY/WX    TMP DP  RH WIND       PRES   REMARKS
DENVER INTL AP FAIR      50  23  34 E9        29.51S
DMNS CITY PARK   N/A     52  16  23 E16       29.51R
AURORA         PTCLDY    50  21  31 E8        29.51S
FRONT RANGE AP PTCLDY    52  21  30 E13G18    29.52
ERIE MUNI ARPT FAIR      53  17  24 E6        29.51R
BOULDER MUN AP FAIR      52  21  30 NE5       29.51R
CENTENNIAL     FAIR      50  20  30 E7        29.51S
BROOMFIELD     CLEAR     54  19  26 VRB5      29.52S
FORT COLLINS   FAIR      52  19  28 S6        29.51S
LONGMONT       FAIR      55  21  26 CALM      29.53R
$$

COZ041-046-047-076>085-087-088-200000-
...PIKES PEAK/PALMER DIVIDE AND SOUTHERN FOOTHILLS...

CITY           SKY/WX    TMP DP  RH WIND       PRES   REMARKS
COLO. SPRINGS  FAIR      50  12  21 SE8       29.54S
A. F. ACADEMY  FAIR      51  12  20 S9        29.53S
SCHRIEVER AFB  NOT AVBL
ELLICOTT       FAIR     N/A N/A N/A SW6       29.53R
FALCON         FAIR      51  10  19 SW9       29.56S
FORT CARSON    SUNNY     50  18  27 S3        29.53S
LIMON          FAIR      51  15  23 N7        29.52F
MONUMENT HILL  FAIR      46  19  34 SE3       29.56S
TRINIDAD       FAIR      40  23  50 NW5       29.54F
$$

COZ042>045-048>051-090-091-200000-
...NORTHEAST COLORADO...

CITY           SKY/WX    TMP DP  RH WIND       PRES   REMARKS
GREELEY ARPT   FAIR      49  27  42 CALM      29.52S
AKRON          FAIR      47  24  40 CALM      29.51S
BURLINGTON     FAIR      46  31  55 E5        29.52S
WRAY           NOT AVBL
STERLING       FAIR      46  28  49 S5        29.49F
HOLYOKE        FAIR      45  30  57 SE5       29.52S
FORT MORGAN    FAIR      49  21  33 CALM      29.51F
$$

COZ086-089-092>099-200000-
...SOUTHEAST COLORADO...

CITY           SKY/WX    TMP DP  RH WIND       PRES   REMARKS
PUEBLO         FAIR      54  25  32 SE7       29.49S
LA JUNTA       FAIR      44  30  57 S7        29.51S
LAMAR          FAIR      46  28  49 SW5       29.50F
SPRINGFIELD      N/A     52  16  24 N7        29.52
$$




USA.gov is the U.S. government's official web portal to all federal, state and local government web resources and services.